This is the latest recevied weather packets stored in our database for station/object IZ1UQG-N2. If no packets are shown the sender has not sent any weather packets the latest 1 day(s).
| Time | Temp. | Humidity | Pressure | Rain* | Wind** | Luminosity | Snow |
|---|---|---|---|---|---|---|---|
| 1777988991 | 11.67° C | 89% | 1011.9 hPa | 0 mm | 0.89 m/s, 359° | 65 W/m² | - |
| 1777988930 | 11.67° C | 89% | 1011.9 hPa | 0.25 mm | 0.89 m/s, 4° | 65 W/m² | - |
| 1777988888 | 11.67° C | 89% | 1011.9 hPa | 0.25 mm | 0.89 m/s, 4° | 65 W/m² | - |
| 1777988870 | 11.67° C | 90% | 1011.9 hPa | 0.25 mm | 0.45 m/s, 2° | 69 W/m² | - |
| 1777988810 | 11.67° C | 90% | 1011.8 hPa | 0.25 mm | 0.89 m/s, 4° | 72 W/m² | - |
| 1777988750 | 11.67° C | 90% | 1011.9 hPa | 0.25 mm | 0.89 m/s, 3° | 77 W/m² | - |
| 1777988707 | 11.67° C | 90% | 1011.9 hPa | 0.25 mm | 0.89 m/s, 3° | 77 W/m² | - |
| 1777988691 | 11.67° C | 89% | 1011.9 hPa | 0.25 mm | 0.89 m/s, 3° | 77 W/m² | - |
| 1777988630 | 11.67° C | 90% | 1011.9 hPa | 0.25 mm | 0.89 m/s, 1° | 76 W/m² | - |
| 1777988569 | 11.67° C | 90% | 1011.9 hPa | 0.25 mm | 0.89 m/s, 2° | 72 W/m² | - |
| 1777988528 | 11.67° C | 90% | 1011.9 hPa | 0.25 mm | 0.89 m/s, 2° | 72 W/m² | - |
| 1777988510 | 11.67° C | 90% | 1012 hPa | 0.25 mm | 0.89 m/s, 4° | 70 W/m² | - |
| 1777988450 | 11.67° C | 89% | 1012 hPa | 0.25 mm | 0.89 m/s, 4° | 69 W/m² | - |
| 1777988390 | 11.67° C | 89% | 1011.9 hPa | 0.25 mm | 1.34 m/s, 4° | 67 W/m² | - |
| 1777988347 | 11.67° C | 89% | 1011.9 hPa | 0.25 mm | 1.34 m/s, 4° | 67 W/m² | - |
| 1777988330 | 11.67° C | 89% | 1011.9 hPa | 0.25 mm | 1.34 m/s, 4° | 63 W/m² | - |
| 1777988270 | 11.67° C | 89% | 1011.9 hPa | 0.25 mm | 1.34 m/s, 3° | 63 W/m² | - |
| 1777988210 | 11.67° C | 89% | 1012 hPa | 0.25 mm | 1.34 m/s, 1° | 63 W/m² | - |
| 1777988168 | 11.67° C | 89% | 1012 hPa | 0.25 mm | 1.34 m/s, 1° | 63 W/m² | - |
| 1777988150 | 11.67° C | 89% | 1012.1 hPa | 0.25 mm | 1.34 m/s, 2° | 63 W/m² | - |
| 1777988090 | 11.67° C | 89% | 1012 hPa | 0.25 mm | 1.34 m/s, 3° | 62 W/m² | - |
| 1777988029 | 11.67° C | 89% | 1011.9 hPa | 0.25 mm | 1.34 m/s, 1° | 62 W/m² | - |
| 1777987987 | 11.67° C | 89% | 1011.9 hPa | 0.25 mm | 1.34 m/s, 1° | 62 W/m² | - |
| 1777987969 | 11.67° C | 89% | 1012.1 hPa | 0.25 mm | 1.34 m/s, 359° | 63 W/m² | - |
| 1777987909 | 11.67° C | 89% | 1012.1 hPa | 0.25 mm | 1.34 m/s, 359° | 63 W/m² | - |
* Rain latest hour (hover to see other rain measurements)
** Current wind speed in m/s (hover to see current wind gust speed)